Погода в Костроме

Погода в Костроме : погода сейчас, прогноз погоды и архив. Всё, что Вы хотите узнать о погоде в Костроме!

Хотите узнать прогноз погоды в Костроме? Тогда Вам сюда: Погода в Костроме

Поиск расширенной информации на нашем сайте:

Другие новости

Новости СМИ2

Главная страница сайта

Новости сайта

02.10.2013

Напоминаем, что на нашем новом сайте вы можете получить высокодетализированные прогнозы погоды по пунктам России, СНГ и мира (включающие важные для авиации метеовеличины, такие как направление и скорость ветра, видимость, явления погоды, количество и форма облачности, нижняя и верхняя граница облачности), а также ознакомиться с разнообразными материалами по авиационной метеорологии и подборкой полезных ссылок на эту тему.

Сайт Метеоцентр.Азия посвящён разработке технологий оптимизации авиаметеорологического обслуживания, включая проектирование и перспективное создание нескольких автоматизированных авиаметеорологических систем:
- система выпуска высокодетальных прогностических карт явлений погоды для нижнего воздушного пространства по России и ближнему зарубежью;
- система верификации прогнозов TAF (выпускаемых синоптиками официальных АМСГ РФ и ближнего зарубежья) и AUTOTAF (выпускаемых сайтом Метеоцентр.Азия) - выявление ошибок, онлайн-сопоставление с фактической погодой METAR, автоматическое внесение коррективов в прогнозы при резком отклонении фактической погоды от прогноза, подсчёт оправдываемости прогнозов по элементам и в целом;
- система обработки, анализа и отображения авиаметеорологической информации для применения провайдерами метеорологической информации.


Погода в Костроме - сегодня

Время (UTC), дата Ветер
(°,м/с) 
Видим.   Явления Облачность Т
(°С)
Тd
(°С)
f(%) Тe
(°С)
Pmin
(гПа)
dP
(гПа)
Po
(мм)
O2
(г/м3)
Тmin Tmax R s Состояние
почвы
03 18.01.17 290 (З) 50000 м  слаб. снег  10/0 средняя 
[Ac As]
-8.9 -10 92 -12  1031.4  -0.4  761  318  -8.9    0.3  31  равномерный
сухой снег
100% 
06 18.01.17 280 (З) 30000 м  слаб. снег  10/10 300 м 
[Frnb]
-9.4 -10.8 90 -11  1031.7  0.3  761  319  -10.1         
09 18.01.17 270 (З) 30000 м  слаб. снег  10/10 300 м 
[Frnb]
-7.7 -9.7 86 -10  1031.2  -0.5  761  317           
12 18.01.17 240 (ЮЗ) 30000 м  {снег}  8/0 средняя, верхняя 
[Ac As|Ci fib]
-6.8 -9.9 79 -10  1029.5  -1.6  760  315           
15 18.01.17 260 (З) 50000 м    10/0 средняя 
[Ac As]
-7.2 -9.4 84 -11  1028.4  -1  759  315    -6.5  0.0     
18 18.01.17 250 (З) 50000 м  слаб. снег  10/0 средняя 
[Ac As]
-6.4 -8.4 86 -10  1027.2  -1.1  758  314           
21 18.01.17 270 (З) 50000 м  слаб. снег  10/0 средняя 
[Ac As]
-5.2 -7.1 86 -8  1025.9  -1.2  757  312           
00 19.01.17 240 (ЮЗ) 50000 м  слаб. снег  10/0 средняя 
[Ac As]
-4.7 -5.8 92 -7  1024.4  -1.4  756  311           
03 19.01.17 230 (ЮЗ) 50000 м  {снег}  10/0 средняя 
[Ac As]
-4.2 -4.9 95 -7  1022.1  -2.2  754  309  -7.2    0.0  31  равномерный
сухой снег
100% 
06 19.01.17 230 (ЮЗ) 30000 м  слаб. дождь{снег}  10/0 средняя 
[Ac As]
-3.7 -4.7 93 -7  1019.4  -2.6  752  308           
09 19.01.17 240 (ЮЗ) 30000 м  слаб. снег{дождь}  10/0 средняя 
[Ac As]
-3 -4.4 90 -7  1017.2  -2.1  751  306           
12 19.01.17 240 (ЮЗ) 30000 м  слаб. снег  10/0 средняя 
[Ac As]
-2.8 -4.6 87 -6  1015.4  -1.8  749  306           
15 19.01.17 260 (З) 50000 м  в посл. час снег  10/0 средняя 
[Ac As]
-2.2 -3.8 89 -6  1012.5  -2.8  747  304    -2.2  0.5     
18 19.01.17 260 (З) 5{11}  50000 м  слаб. снег  10/0 средняя 
[Ac As]
-1.7 -3.3 89 -5  1009.8  -2.6  745  303           
21 19.01.17 260 (З) 6{11}  50000 м  слаб. снег  10/0 средняя 
[Ac As]
-1.2 -3.1 87 -5  1006.5  -3.2  743  301           
00 20.01.17 250 (З) 6-10  5000 м  слаб. снег  10/5 300 м средняя 
[Frnb|Ac As]
-0.8 -3 85 -4  1002.9  -3.5  740  300           
03 20.01.17 280 (З) 6-10{17}  50000 м  слаб. снег  10/8 300 м средняя 
[Frnb|Ac As]
+0.3 -2.2 83 -3  1001.7  -1.1  740  298  -2.2    0.3  31  равномерный
сухой снег
100% 
06 20.01.17 310 (СЗ) 6-12{13}  30000 м  позёмок{снег}  3/3 600 м кучево-дожд., верхняя 
[Cb cap|Ci fib]
-1.5 -6 71 -5  1003.4  1.5  741  301           
09 20.01.17 310 (СЗ) 6-11{13}  30000 м  позёмок  3/3 600 м кучево-дожд. 
[Cb cap]
-1.9 -7.4 66 -6  1005.6  2.1  742  302           
12 20.01.17 310 (СЗ) 7-11{16}  30000 м  позёмок  10/3 600 м кучево-дожд., средняя 
[Cb cap|Ac As]
-3.6 -8.8 67 -8  1007.4  1.7  744  304           
15 20.01.17 320 (СЗ) 4{13}  50000 м    ясно 
-6.4 -12.8 60 -10  1009.5  1.9  745  309    +0.6  0.0     
18 20.01.17 290 (З) 50000 м    1/0 верхняя 
[Ci fib]
-7.6 -13.5 63 -11  1009.3  -0.2  745  310           
21 20.01.17 270 (З) 50000 м    1/0 верхняя 
[Ci fib]
-8 -12 73 -12  1008.1  -1.2  744  310           
00 21.01.17 270 (З) 5{10}  50000 м    1/0 верхняя 
[Ci fib]
-7.4 -11.4 73 -12  1005.8  -2.2  742  308           
03 21.01.17 280 (З) 4{12}  50000 м  слаб. снег  10/0 средняя 
[Ac As]
-5.9 -8.7 81 -9  1003.5  -2.1  741  306  -8    0.0  30  равномерный
сухой снег
100% 
Время (UTC), дата Ветер
(°,м/с) 
Видим.   Явления Облачность Т
(°С)
Тd
(°С)
f(%) Тe
(°С)
Pmin
(гПа)
dP
(гПа)
Po
(мм)
O2
(г/м3)
Тmin Tmax R s Состояние
почвы

Для получения пояснительной информации подведите курсор к названию столбца.

ПОГОДА в Костроме - архив

Всё, что Вы хотите узнать о погоде в Костроме - удобно и подробно!

Выберите нужную дату (начиная с 1 января 2015* года) и нажмите кнопку "Найти".
Будут отображены архивные сводки погоды по пункту Кострома, начиная с указанной даты.


Отображать данные в формате CSV (для использования в таблицах Excel)


Внимание! Наш архив погоды предназначен исключительно для личного некоммерческого использования в познавательных целях. Если Вам необходимы официальные справки о состоянии погоды (для производственных, юридических, коммерческих и т.п. целей), обращайтесь в органы Росгидромета.

*Примечание: данная дата относится к архиву по метеостанциям СССР (Россия, СНГ, Балтия).
Архив по метеостанциям Зарубежной Европы и Азии (кроме Китая) хранится 10 дней, по другим регионам земного шара (Китай, Африка, Америка, Австралия, Океания) - 1 день.

Кострома - район местоположения метеостанции


Название, широта, долгота, высота метеостанции:
Кострома 57.7°ш. 40.8°д. 126 м над ур. моря [Российская Федерация]

Дополнительная информация

В oтличие oт бoльшинства пoгoдных сайтoв мы публикуем пoдрoбную метеoинфoрмацию в детальнoм прoфессиoнальнoм фoрмате.

Характеристики температуры и влажнoсти вoздуха измеряются на высoте 2 м в тени вдали oт зданий и деревьев.
Скoрoсть ветра измеряется на высoте 10 м (на урoвне рoста челoвека скoрoсть ветра ниже в 1.5-2 раза). Если метеoстанция нахoдится в гoрoде или в лесу, тo скoрoсть ветра занижена на 2-4 м/с пo сравнению с oткрытым местoм. Скoрoсть ветра над акватoриями крупных рек и oзёр, а также на вершинах хoлмoв на 2-5 м/с выше, чем в oбычных услoвиях.
Атмoсфернoе давление в разных тoчках местнoсти мoжет значительнo oтличаться oт давления на метеoстанции, в зависимoсти oт услoвий рельефа (при пoдъёме на 10 м давление пoнижается примернo на 1 мм рт.ст.).